Location: LDNL
(36.4545°S, 141.6685°E)
Time: 11:56:27
(UTC+10:00)

Explorer 7 - Pass Details

Date: 12 August 2022
Orbit: 482 x 668 km, 50.3° (Epoch: 26 September)

Event Time Altitude Azimuth Distance (km) Brightness Sun altitude
Rises 00:18:16 0° 226° (SW) 2,885 - -68.2°
Reaches altitude 10° 00:20:54 10° 214° (SW) 1,942 - -68.3°
Maximum altitude 00:24:45 28° 155° (SSE) 1,094 - -68.5°
Drops below altitude 10° 00:28:22 10° 94° (E) 1,826 - -68.6°
Sets 00:30:46 0° 82° (E) 2,680 - -68.6°
